When you browse on this site, cookies collect data to enhance your experience and personalize the content and advertising you see.
Visit our Privacy Policy to learn more. By continuing to use the site, you agree to this use of cookies and data.
  • In Österreich
  • Länderverzeichnis
  • Für 7 Tage
  • Wassertemperatur
  • Satellitenkarten
  • Wetterkarte
  • News
  • Widgets
  • user-avatar
    Anmelden

    Stündliche Wetter Statesboro

    Heute, 21 April, Sonntag

    Zeit Temperatur Niederschläge Wind Luftdruck Luftfeuchtigkeit
    00:00 +10°C° 0 mm 2 m/S 755 mmHg 75%
    01:00 +9°C° 0 mm 2 m/S 755 mmHg 76%
    02:00 +9°C° 0 mm 2 m/S 755 mmHg 76%
    03:00 +9°C° 0 mm 3 m/S 755 mmHg 77%
    04:00 +9°C° 0 mm 3 m/S 755 mmHg 78%
    05:00 +9°C° 0 mm 3 m/S 756 mmHg 76%
    06:00 +10°C° 0 mm 4 m/S 756 mmHg 75%
    07:00 +10°C° 0 mm 4 m/S 757 mmHg 74%
    08:00 +12°C° 0 mm 4 m/S 757 mmHg 68%
    09:00 +14°C° 0 mm 4 m/S 757 mmHg 62%
    10:00 +17°C° 0 mm 4 m/S 758 mmHg 55%
    11:00 +18°C° 0 mm 4 m/S 758 mmHg 53%
    12:00 +19°C° 0 mm 4 m/S 758 mmHg 51%
    13:00 +20°C° 0 mm 4 m/S 757 mmHg 49%
    14:00 +21°C° 0 mm 4 m/S 757 mmHg 49%
    15:00 +21°C° 0 mm 4 m/S 757 mmHg 49%
    16:00 +21°C° 0 mm 3 m/S 757 mmHg 49%
    17:00 +20°C° 0 mm 2 m/S 757 mmHg 54%
    18:00 +20°C° 0 mm 1 m/S 758 mmHg 60%
    19:00 +16°C° 0 mm 0 m/S 758 mmHg 65%
    20:00 +16°C° 0 mm 0 m/S 758 mmHg 67%
    21:00 +16°C° 0 mm 1 m/S 759 mmHg 68%
    22:00 +15°C° 0 mm 1 m/S 759 mmHg 70%
    23:00 +15°C° 0 mm 1 m/S 759 mmHg 71%

    Morgen, 22 April, Montag

    Zeit Temperatur Niederschläge Wind Luftdruck Luftfeuchtigkeit
    00:00 +15°C° 0 mm 1 m/S 759 mmHg 73%
    01:00 +14°C° 0 mm 1 m/S 759 mmHg 74%
    02:00 +14°C° 0 mm 1 m/S 759 mmHg 73%
    03:00 +13°C° 0 mm 2 m/S 759 mmHg 72%
    04:00 +13°C° 0 mm 2 m/S 759 mmHg 70%
    05:00 +13°C° 0 mm 2 m/S 759 mmHg 70%
    06:00 +13°C° 0 mm 2 m/S 760 mmHg 69%
    07:00 +14°C° 0 mm 2 m/S 760 mmHg 69%
    08:00 +16°C° 0 mm 2 m/S 761 mmHg 63%
    09:00 +19°C° 0 mm 1 m/S 761 mmHg 57%
    10:00 +22°C° 0 mm 1 m/S 761 mmHg 51%
    11:00 +23°C° 0 mm 1 m/S 761 mmHg 48%
    12:00 +25°C° 0 mm 1 m/S 761 mmHg 45%
    13:00 +27°C° 0 mm 1 m/S 760 mmHg 42%
    14:00 +27°C° 0 mm 1 m/S 760 mmHg 42%
    15:00 +27°C° 0 mm 1 m/S 760 mmHg 42%
    16:00 +27°C° 0 mm 1 m/S 759 mmHg 42%
    17:00 +26°C° 0 mm 1 m/S 759 mmHg 48%
    18:00 +24°C° 0 mm 1 m/S 759 mmHg 54%
    19:00 +22°C° 0 mm 1 m/S 759 mmHg 61%
    20:00 +21°C° 0 mm 1 m/S 760 mmHg 63%
    21:00 +19°C° 0 mm 2 m/S 760 mmHg 65%
    22:00 +18°C° 0 mm 2 m/S 760 mmHg 67%
    23:00 +18°C° 0 mm 2 m/S 760 mmHg 68%

    übermorgen, 23 April, Dienstag

    Zeit Temperatur Niederschläge Wind Luftdruck Luftfeuchtigkeit
    00:00 +18°C° 0 mm 1 m/S 760 mmHg 69%
    01:00 +16°C° 0 mm 1 m/S 760 mmHg 70%
    02:00 +16°C° 0 mm 1 m/S 760 mmHg 70%
    03:00 +16°C° 0 mm 1 m/S 760 mmHg 71%
    04:00 +15°C° 0 mm 1 m/S 760 mmHg 71%
    05:00 +16°C° 0 mm 1 m/S 760 mmHg 71%
    06:00 +18°C° 0 mm 1 m/S 760 mmHg 70%
    07:00 +16°C° 0 mm 0 m/S 760 mmHg 70%
    08:00 +21°C° 0 mm 1 m/S 760 mmHg 63%
    09:00 +23°C° 0 mm 1 m/S 761 mmHg 56%
    10:00 +25°C° 0 mm 1 m/S 761 mmHg 49%
    11:00 +27°C° 0 mm 1 m/S 760 mmHg 46%
    12:00 +28°C° 0 mm 1 m/S 760 mmHg 43%
    13:00 +30°C° 0 mm 1 m/S 760 mmHg 40%
    14:00 +30°C° 0 mm 1 m/S 759 mmHg 40%
    15:00 +30°C° 0 mm 1 m/S 758 mmHg 40%
    16:00 +30°C° 0 mm 1 m/S 758 mmHg 40%
    17:00 +28°C° 0 mm 1 m/S 758 mmHg 46%
    18:00 +26°C° 0 mm 1 m/S 758 mmHg 52%
    19:00 +24°C° 0 mm 1 m/S 758 mmHg 58%
    20:00 +23°C° 0 mm 1 m/S 758 mmHg 59%
    21:00 +21°C° 0 mm 2 m/S 758 mmHg 60%
    22:00 +20°C° 0 mm 3 m/S 759 mmHg 61%
    23:00 +19°C° 0 mm 3 m/S 758 mmHg 62%

    24 April, Mittwoch

    Zeit Temperatur Niederschläge Wind Luftdruck Luftfeuchtigkeit
    00:00 +18°C° 0 mm 3 m/S 758 mmHg 62%
    01:00 +18°C° 0 mm 3 m/S 758 mmHg 63%
    02:00 +17°C° 0 mm 3 m/S 758 mmHg 64%
    03:00 +17°C° 0 mm 3 m/S 757 mmHg 66%
    04:00 +17°C° 0 mm 2 m/S 757 mmHg 67%
    05:00 +17°C° 0 mm 2 m/S 757 mmHg 68%
    06:00 +17°C° 0 mm 2 m/S 757 mmHg 69%
    07:00 +18°C° 0 mm 2 m/S 758 mmHg 70%
    08:00 +20°C° 0 mm 2 m/S 758 mmHg 64%
    09:00 +24°C° 0 mm 2 m/S 758 mmHg 59%
    10:00 +26°C° 0 mm 2 m/S 758 mmHg 53%
    11:00 +28°C° 0 mm 2 m/S 757 mmHg 49%
    12:00 +29°C° 0 mm 3 m/S 757 mmHg 45%
    13:00 +30°C° 0 mm 3 m/S 757 mmHg 42%
    14:00 +30°C° 0 mm 3 m/S 756 mmHg 41%
    15:00 +31°C° 0 mm 3 m/S 756 mmHg 41%
    16:00 +31°C° 0 mm 3 m/S 755 mmHg 40%
    17:00 +29°C° 0 mm 3 m/S 755 mmHg 47%
    18:00 +27°C° 0 mm 2 m/S 755 mmHg 53%
    19:00 +26°C° 0 mm 2 m/S 755 mmHg 60%
    20:00 +25°C° 0 mm 2 m/S 756 mmHg 61%
    21:00 +24°C° 0 mm 2 m/S 756 mmHg 62%
    22:00 +23°C° 0 mm 2 m/S 756 mmHg 63%
    23:00 +23°C° 0 mm 2 m/S 756 mmHg 65%

    25 April, Donnerstag

    Zeit Temperatur Niederschläge Wind Luftdruck Luftfeuchtigkeit
    00:00 +21°C° 0 mm 2 m/S 755 mmHg 67%
    01:00 +21°C° 0 mm 2 m/S 755 mmHg 70%
    02:00 +20°C° 0 mm 2 m/S 755 mmHg 71%
    03:00 +20°C° 0 mm 2 m/S 755 mmHg 72%
    04:00 +19°C° 0 mm 2 m/S 755 mmHg 74%
    05:00 +20°C° 0 mm 2 m/S 755 mmHg 75%
    06:00 +20°C° 0 mm 2 m/S 756 mmHg 75%
    07:00 +20°C° 0 mm 2 m/S 756 mmHg 76%
    08:00 +23°C° 0 mm 2 m/S 756 mmHg 68%
    09:00 +25°C° 0 mm 2 m/S 756 mmHg 60%
    10:00 +28°C° 0 mm 3 m/S 756 mmHg 52%
    11:00 +29°C° 0 mm 3 m/S 756 mmHg 48%
    12:00 +30°C° 0 mm 3 m/S 756 mmHg 45%
    13:00 +32°C° 0 mm 4 m/S 755 mmHg 41%
    14:00 +32°C° 0 mm 4 m/S 755 mmHg 41%
    15:00 +32°C° 0 mm 4 m/S 754 mmHg 41%
    16:00 +32°C° 0 mm 4 m/S 754 mmHg 40%
    17:00 +29°C° 0 mm 4 m/S 754 mmHg 47%
    18:00 +28°C° 0 mm 3 m/S 754 mmHg 53%
    19:00 +26°C° 0 mm 3 m/S 755 mmHg 59%
    20:00 +25°C° 0 mm 3 m/S 755 mmHg 59%
    21:00 +24°C° 0 mm 3 m/S 755 mmHg 59%
    22:00 +24°C° 0 mm 3 m/S 755 mmHg 60%
    23:00 +23°C° 0 mm 2 m/S 755 mmHg 61%

    26 April, Freitag

    Zeit Temperatur Niederschläge Wind Luftdruck Luftfeuchtigkeit
    00:00 +23°C° 0 mm 2 m/S 755 mmHg 63%
    01:00 +21°C° 0 mm 2 m/S 755 mmHg 64%
    02:00 +21°C° 0 mm 2 m/S 755 mmHg 66%
    03:00 +21°C° 0 mm 2 m/S 755 mmHg 68%
    04:00 +21°C° 0 mm 2 m/S 755 mmHg 70%
    05:00 +21°C° 0.1 mm 2 m/S 755 mmHg 73%
    06:00 +22°C° 0.1 mm 1 m/S 756 mmHg 76%
    07:00 +22°C° 0.1 mm 1 m/S 756 mmHg 79%
    08:00 +23°C° 0 mm 1 m/S 756 mmHg 74%
    09:00 +24°C° 0 mm 1 m/S 756 mmHg 68%
    10:00 +25°C° 0 mm 1 m/S 756 mmHg 63%
    11:00 +25°C° 0.5 mm 2 m/S 756 mmHg 64%
    12:00 +25°C° 0.5 mm 2 m/S 756 mmHg 66%
    13:00 +25°C° 0.5 mm 3 m/S 756 mmHg 67%
    14:00 +25°C° 0.1 mm 2 m/S 755 mmHg 67%
    15:00 +25°C° 0.1 mm 2 m/S 755 mmHg 67%
    16:00 +25°C° 0.1 mm 2 m/S 755 mmHg 67%
    17:00 +24°C° 0 mm 1 m/S 755 mmHg 69%
    18:00 +23°C° 0 mm 1 m/S 755 mmHg 71%
    19:00 +23°C° 0 mm 1 m/S 755 mmHg 74%
    20:00 +22°C° 0 mm 1 m/S 756 mmHg 77%
    21:00 +21°C° 0 mm 1 m/S 756 mmHg 80%
    22:00 +20°C° 0 mm 1 m/S 756 mmHg 84%
    23:00 +20°C° 0 mm 1 m/S 756 mmHg 85%
    Mehr zeigen